Back to catalog

IRIDIUM 33 DEB

AlivePO
NORAD 34159·DEBRIS·🇺🇸 United States

Launched Sep 14, 1997 from Baikonur Cosmodrome

Loading…

Next Passes (next 24 hours)

TLE

FreshSource: Space-Track

Epoch: Sep 14, 2026, 13:08 UTC

1 34159U 97051EN  26257.54785895  .00000628  00000-0  19579-3 0  9997
2 34159  86.3470 290.6101 0030078 101.2556 259.2025 14.39078441919251

Track IRIDIUM 33 DEB in real time with AllMySat

Download on the App Store